Regional Weather Roundup
Issued by NWS Sterling, VA

Home | Current Version | Previous Version | Graphics & Text | Print | Product List | Glossary On
Versions: 1 2 3 4 5 6 7 8 9 10 11 12 13 14 15 16 17 18 19 20 21 22 23 24 25 26 27 28 29 30 31 32 33 34 35 36 37 38 39 40 41 42 43 44 45 46 47 48 49 50
000
ASUS41 KLWX 241410
RWRLWX

REGIONAL WEATHER ROUNDUP
NATIONAL WEATHER SERVICE BALTIMORE MD/WASHINGTON DC
1000 AM EDT WED AUG 24 2016

Note: "FAIR" indicates few or no clouds below 12,000 feet
with no significant weather and/or obstructions to visibility.
 TC=TEMPERATURE CELSIUS

 * =Non NWS site. Station does not report precipitation (e.g. rain,
    snow, etc.), thunder, or fog.

DCZ001-MDZ009-015-VAZ040>042-051-053>054-241500-
WASHINGTON METRO

CITY           SKY/WX    TMP DP  RH WIND       PRES   REMARKS
WASHINGTON NAT MOSUNNY   78  62  57 S9        30.31F
DULLES         PTSUNNY   76  61  59 S8        30.30F
ANDREWS AFB    SUNNY     77  62  59 S8        30.30F
FT BELVOIR     SUNNY     76  62  59 VRB5      30.30F
COLLEGE PARK*  SUNNY     77  59  53 S5        30.30S
LEESBURG*      SUNNY     75  68  78 S3        30.31F
MANASSAS*      SUNNY     75  64  69 SW8       30.30F
GAITHERSBURG*  SUNNY     75  59  57 SW8       30.35S

$$

MDZ006>007-011-014-241500-
BALTIMORE METRO

CITY           SKY/WX    TMP DP  RH WIND       PRES   REMARKS
BWI AIRPORT    MOSUNNY   76  61  59 SW6       30.30F
MD SCIENCE CTR   N/A     77  59  53 MISG      30.33F
MARTIN STATE   MOSUNNY   77  66  69 CALM      30.32F
ANNAPOLIS      MOSUNNY   77  63  61 SW6       30.30F
FORT MEADE*    SUNNY     73  63  68 SW5       30.33S

$$

MDZ012-015-019>023-241500-
MARYLAND EASTERN SHORE

CITY           SKY/WX    TMP DP  RH WIND       PRES   REMARKS
OCEAN CITY     SUNNY     79  60  52 N3        30.32R
SALISBURY      SUNNY     77  62  59 VRB3      30.31F
BAY BRIDGE AP* SUNNY     77  63  61 SW7       30.31S
CAMBRIDGE*     SUNNY     75  64  69 S3        30.31S
EASTON*        MOSUNNY   81  72  74 W5        30.35S

$$

MDZ017>025-241500-
SOUTHERN MARYLAND

CITY           SKY/WX    TMP DP  RH WIND       PRES   REMARKS
PATUXENT RIVER MOSUNNY   77  64  64 W7        30.31F
ST INIGOES     SUNNY     77  64  64 W6        30.31F
LEONARDTOWN*   MOSUNNY   75  63  64 SW6       30.34R

$$

MDZ003>005-241500-
NORTH CENTRAL MARYLAND

CITY           SKY/WX    TMP DP  RH WIND       PRES   REMARKS
FREDERICK*     SUNNY     75  66  73 SW6       30.33S
HAGERSTOWN APT SUNNY     75  62  64 S5        30.30F

$$

MDZ501>502-241500-
WESTERN MARYLAND

CITY           SKY/WX    TMP DP  RH WIND       PRES   REMARKS
OAKLAND*       SUNNY     68  61  77 SW8       30.36S
CUMBERLAND*    SUNNY     72  63  73 CALM      30.34S

$$

VAZ025>031-241500-
SHENANDOAH VALLEY

CITY           SKY/WX    TMP DP  RH WIND       PRES   REMARKS
WINCHESTER*    SUNNY     75  64  69 W3        30.30S
FRONT ROYAL*   FAIR      73  64  73 SW6       30.29S
LURAY*         FAIR      73  66  78 S6        30.31F
NEW MARKET*    FAIR     N/A N/A N/A SW3       30.30F
STAUNTON*      SUNNY     73  64  75 SW5       30.34F
WAYNESBORO*    FAIR      73  63  68 CALM      30.34S

$$

WVZ021-048>050-054>055-241500-
EASTERN WEST VIRGINIA PANHANDLE

CITY           SKY/WX    TMP DP  RH WIND       PRES   REMARKS
MARTINSBURG    SUNNY     73  64  73 S3        30.29F
PETERSBURG*    SUNNY     72  64  75 CALM      30.29F

$$

VAZ036>039-050-241500-
CENTRAL FOOTHILLS

CITY           SKY/WX    TMP DP  RH WIND       PRES   REMARKS
CHARLOTTESVILL MOSUNNY   74  65  73 S6        30.31F
CULPEPER*      SUNNY     76  67  72 SW3       30.31F
ORANGE*        NOT AVBL
GORDONSVILLE*  NOT AVBL
WARRENTON*     FAIR      77  60  56 S5        30.30F

$$

VAZ055>057-241500-
NORTH AND CENTRAL PIEDMONT

CITY           SKY/WX    TMP DP  RH WIND       PRES   REMARKS
FREDERICKSBRG* CLOUDY    77  64  63 S6        30.30F
STAFFORD*      CLOUDY    76  62  61 SW8       30.35F

$$

NCZ024-NYZ072-PAZ021-071-VAZ022-071-241500-
OTHER REGIONAL OBSERVATIONS

CITY           SKY/WX    TMP DP  RH WIND       PRES   REMARKS
NEW YORK CITY  SUNNY     75  60  59 VRB3      30.31F
PHILADELPHIA   MOSUNNY   76  62  62 SW7       30.31S
PITTSBURGH     MOSUNNY   71  62  73 SE3       30.25F
ROANOKE        MOSUNNY   72  65  78 CALM      30.35F
RICHMOND       PTSUNNY   77  59  53 W5        30.32F
RALEIGH        PTSUNNY   79  58  48 E6        30.32F

$$

ANZ530>537-241500-
MARINE OBSERVATIONS

STATION/POSITION TIME  TEMP    WIND        PRES
                       AIR SEA DIR/SP/G
                 (UTC) (F)     (DEG/KT/KT) (MB)
THOMAS PT LIGHT  1400   74 81  250/  6/  7 1027.7F
BALT KEY BRIDGE  1348   75     220/  5/  7 1026.1F
COVE POINT       1348   76     290/  5/  8 1027.1F
LEWISETTA        1348   75 81  270/  5/  6 1026.2F
SOLOMONS ISLAND  1348   77 83  270/  3/  7   N/A
PINEY POINT      1348          310/  5/  6   N/A

$$




USA.gov is the U.S. government's official web portal to all federal, state and local government web resources and services.